This is the latest recevied weather packets stored in our database for station/object DC3YC-13. If no packets are shown the sender has not sent any weather packets the latest 10 day(s).
| Time | Temp. | Humidity | Pressure | Rain* | Wind** | Luminosity | Snow |
|---|---|---|---|---|---|---|---|
| 1777451790 | 16.11° C | 33% | 1019.9 hPa | 0 mm | - | - | - |
| 1777451190 | 15° C | 33% | 1022 hPa | 0 mm | - | - | - |
| 1777450590 | 15° C | 35% | 1022 hPa | 0 mm | - | - | - |
| 1777449990 | 13.89° C | 36% | 1022 hPa | 0 mm | - | - | - |
| 1777449390 | 13.89° C | 35% | 1020.9 hPa | 0 mm | - | - | - |
| 1777448790 | 12.78° C | 36% | 1020.9 hPa | 0 mm | - | - | - |
| 1777448190 | 12.78° C | 37% | 1020.9 hPa | 0 mm | - | - | - |
| 1777447590 | 12.22° C | 37% | 1020.9 hPa | 0 mm | - | - | - |
| 1777446990 | 12.22° C | 39% | 1020.9 hPa | 0 mm | - | - | - |
| 1777446390 | 11.11° C | 41% | 1020.9 hPa | 0 mm | - | - | - |
| 1777445790 | 11.11° C | 45% | 1020.9 hPa | 0 mm | - | - | - |
| 1777445190 | 11.11° C | 46% | 1020.9 hPa | 0 mm | - | - | - |
| 1777444590 | 10° C | 48% | 1020.9 hPa | 0 mm | - | - | - |
| 1777443990 | 10° C | 49% | 1020.9 hPa | 0 mm | - | - | - |
| 1777443390 | 8.89° C | 50% | 1020.9 hPa | 0 mm | - | - | - |
| 1777442790 | 7.78° C | 53% | 1020.9 hPa | 0 mm | - | - | - |
| 1777442190 | 7.78° C | 55% | 1020.9 hPa | 0 mm | - | - | - |
| 1777441590 | 7.22° C | 57% | 1020.9 hPa | 0 mm | - | - | - |
| 1777440990 | 6.11° C | 58% | 1020.9 hPa | 0 mm | - | - | - |
| 1777440390 | 6.11° C | 62% | 1020.9 hPa | 0 mm | - | - | - |
| 1777439790 | 5° C | 64% | 1020.8 hPa | 0 mm | - | - | - |
| 1777439190 | 3.89° C | 67% | 1020.8 hPa | 0 mm | - | - | - |
| 1777438590 | 3.89° C | 68% | 1020.8 hPa | 0 mm | - | - | - |
| 1777437990 | 3.89° C | 70% | 1020.8 hPa | 0 mm | - | - | - |
| 1777437390 | 3.89° C | 73% | 1020.8 hPa | 0 mm | - | - | - |
* Rain latest hour (hover to see other rain measurements)
** Current wind speed in m/s (hover to see current wind gust speed)